QPF
0.00 0.00 0.00 0.00 0.00 0.00 0.00 0.00 0.00 0.00 0.00 0.00 0.00 0.00 0.01 0.02 0.04 0.05 0.04 0.04 0.04 0.04 0.02 0.01 0.00 0.00 0.00 0.00 0.00 0.00 0.00 0.00 0.00 0.00 0.00 0.00 0.00 0.00 0.00 0.00 0.00 0.00 0.00
0.00 0.00 0.00 0.00 0.00 0.00 0.00 0.00 0.00 0.00 0.00 0.00 0.00 0.00 0.00 0.02 0.03 0.04 0.05 0.07 0.07 0.06 0.03 0.02 0.01 0.00 0.00 0.00 0.00 0.00 0.00 0.00 0.00 0.00 0.00 0.00 0.00 0.00 0.00 0.00 0.00 0.00 0.00
0.00 0.00 0.00 0.00 0.00 0.00 0.00 0.00 0.00 0.00 0.00 0.00 0.00 0.00 0.00 0.01 0.01 0.02 0.05 0.06 0.08 0.07 0.04 0.03 0.01 0.01 0.00 0.00 0.00 0.00 0.00 0.00 0.00 0.00 0.00 0.00 0.00 0.00 0.00 0.00 0.00 0.00 0.00
0.00 0.00 0.00 0.00 0.00 0.00 0.00 0.00 0.00 0.00 0.00 0.00 0.00 0.00 0.00 0.00 0.01 0.03 0.05 0.06 0.06 0.06 0.05 0.03 0.01 0.01 0.00 0.00 0.00 0.00 0.00 0.00 0.00 0.00 0.00 0.00 0.00 0.00 0.00 0.00 0.00 0.00 0.00
0.00 0.00 0.00 0.00 0.00 0.00 0.00 0.00 0.00 0.00 0.00 0.00 0.00 0.00 0.00 0.00 0.01 0.02 0.03 0.04 0.04 0.04 0.03 0.03 0.01 0.01 0.00 0.00 0.00 0.00 0.00 0.00 0.00 0.00 0.00 0.00 0.00 0.00 0.00 0.00 0.00 0.00 0.00
0.00 0.00 0.00 0.00 0.00 0.00 0.00 0.00 0.00 0.00 0.00 0.00 0.00 0.00 0.00 0.00 0.01 0.02 0.02 0.03 0.03 0.03 0.02 0.02 0.01 0.01 0.00 0.00 0.00 0.00 0.00 0.00 0.00 0.00 0.00 0.00 0.00 0.00 0.00 0.00 0.00 0.00 0.00
0.00 0.00 0.00 0.00 0.00 0.00 0.00 0.00 0.00 0.00 0.00 0.00 0.00 0.00 0.00 0.00 0.01 0.02 0.03 0.03 0.03 0.03 0.02 0.01 0.01 0.00 0.00 0.00 0.00 0.00 0.00 0.00 0.00 0.00 0.00 0.00 0.00 0.00 0.00 0.00 0.00 0.00 0.00
0.00 0.00 0.00 0.00 0.00 0.00 0.00 0.00 0.00 0.00 0.00 0.00 0.00 0.00 0.00 0.00 0.01 0.02 0.03 0.03 0.04 0.04 0.03 0.02 0.01 0.00 0.00 0.00 0.00 0.00 0.00 0.00 0.00 0.00 0.00 0.00 0.00 0.00 0.00 0.00 0.00 0.00 0.00
0.00 0.00 0.00 0.00 0.00 0.00 0.00 0.00 0.00 0.00 0.00 0.00 0.00 0.00 0.00 0.00 0.01 0.01 0.02 0.02 0.03 0.03 0.02 0.01 0.00 0.00 0.00 0.00 0.00 0.00 0.00 0.00 0.00 0.00 0.00 0.00 0.00 0.00 0.00 0.00 0.00 0.00 0.00
0.00 0.00 0.00 0.00 0.00 0.00 0.00 0.00 0.00 0.00 0.00 0.00 0.00 0.00 0.00 0.00 0.01 0.01 0.02 0.02 0.02 0.02 0.01 0.00 0.00 0.00 0.00 0.00 0.00 0.00 0.00 0.00 0.00 0.00 0.00 0.00 0.00 0.00 0.00 0.00 0.00 0.00 0.00
0.00 0.00 0.00 0.00 0.00 0.00 0.00 0.00 0.00 0.00 0.00 0.00 0.00 0.00 0.00 0.00 0.00 0.01 0.01 0.02 0.02 0.01 0.01 0.00 0.00 0.00 0.00 0.00 0.00 0.00 0.00 0.00 0.00 0.00 0.00 0.00 0.00 0.00 0.00 0.00 0.00 0.00 0.00
0.00 0.00 0.00 0.00 0.00 0.00 0.00 0.00 0.00 0.00 0.00 0.00 0.00 0.00 0.00 0.00 0.00 0.01 0.01 0.01 0.01 0.01 0.00 0.00 0.00 0.00 0.00 0.00 0.00 0.00 0.00 0.00 0.00 0.00 0.00 0.00 0.00 0.00 0.00 0.00 0.00 0.00 0.00
0.00 0.00 0.00 0.01 0.01 0.01 0.01 0.01 0.00 0.00 0.00 0.00 0.00 0.00 0.00 0.00 0.01 0.01 0.01 0.01 0.01 0.00 0.00 0.00 0.00 0.00 0.00 0.00 0.00 0.00 0.00 0.00 0.00 0.00 0.00 0.00 0.00 0.00 0.00 0.00 0.00 0.00 0.00
0.01 0.01 0.01 0.01 0.01 0.00 0.00 0.00 0.00 0.00 0.00 0.00 0.00 0.00 0.01 0.01 0.01 0.01 0.01 0.01 0.00 0.00 0.00 0.00 0.00 0.00 0.00 0.00 0.00 0.00 0.00 0.00 0.00 0.00 0.00 0.00 0.00 0.00 0.00 0.00 0.00 0.00 0.00
0.01 0.01 0.01 0.01 0.01 0.00 0.00 0.00 0.00 0.00 0.00 0.01 0.01 0.01 0.01 0.01 0.01 0.01 0.00 0.00 0.00 0.00 0.00 0.00 0.00 0.00 0.00 0.00 0.00 0.00 0.00 0.00 0.00 0.00 0.00 0.00 0.00 0.00 0.00 0.00 0.00 0.00 0.00
0.03 0.02 0.02 0.01 0.01 0.00 0.00 0.00 0.00 0.00 0.01 0.01 0.01 0.01 0.01 0.01 0.01 0.00 0.00 0.00 0.00 0.00 0.00 0.00 0.00 0.00 0.00 0.00 0.00 0.00 0.00 0.00 0.00 0.00 0.00 0.00 0.00 0.00 0.00 0.00 0.00 0.01 0.01
0.01 0.01 0.01 0.01 0.00 0.00 0.00 0.00 0.01 0.01 0.01 0.01 0.01 0.01 0.01 0.01 0.00 0.00 0.00 0.00 0.00 0.00 0.00 0.00 0.00 0.00 0.00 0.00 0.00 0.00 0.00 0.00 0.00 0.00 0.00 0.00 0.00 0.00 0.00 0.00 0.00 0.00 0.01
0.01 0.01 0.01 0.00 0.00 0.00 0.00 0.01 0.01 0.01 0.01 0.01 0.01 0.01 0.01 0.01 0.01 0.01 0.01 0.01 0.01 0.01 0.01 0.00 0.00 0.00 0.00 0.00 0.00 0.00 0.00 0.00 0.00 0.00 0.00 0.00 0.00 0.00 0.00 0.00 0.01 0.01 0.01
0.03 0.03 0.02 0.02 0.01 0.01 0.02 0.02 0.02 0.02 0.02 0.03 0.03 0.02 0.02 0.02 0.02 0.02 0.01 0.01 0.01 0.00 0.00 0.00 0.00 0.00 0.00 0.00 0.00 0.00 0.00 0.00 0.00 0.00 0.00 0.00 0.00 0.00 0.01 0.01 0.01 0.01 0.00
0.04 0.05 0.05 0.06 0.06 0.06 0.06 0.06 0.05 0.06 0.05 0.05 0.04 0.04 0.04 0.03 0.02 0.01 0.01 0.00 0.00 0.00 0.00 0.00 0.00 0.00 0.00 0.00 0.00 0.00 0.00 0.00 0.00 0.00 0.00 0.00 0.00 0.00 0.01 0.02 0.02 0.01 0.00
0.07 0.07 0.07 0.08 0.09 0.08 0.08 0.07 0.07 0.06 0.06 0.05 0.04 0.02 0.02 0.01 0.01 0.00 0.00 0.00 0.00 0.00 0.00 0.00 0.00 0.00 0.00 0.00 0.00 0.00 0.00 0.00 0.00 0.00 0.00 0.00 0.00 0.01 0.01 0.02 0.01 0.00 0.01
0.05 0.06 0.06 0.08 0.08 0.09 0.09 0.08 0.07 0.05 0.04 0.03 0.01 0.01 0.00 0.00 0.00 0.00 0.00 0.00 0.00 0.00 0.00 0.00 0.00 0.00 0.00 0.00 0.00 0.00 0.00 0.00 0.00 0.00 0.00 0.00 0.01 0.01 0.01 0.00 0.00 0.00 0.00
0.03 0.04 0.05 0.05 0.06 0.06 0.07 0.05 0.03 0.02 0.01 0.01 0.01 0.00 0.00 0.00 0.00 0.00 0.00 0.00 0.00 0.00 0.00 0.00 0.00 0.00 0.00 0.00 0.00 0.00 0.00 0.00 0.00 0.00 0.00 0.01 0.01 0.00 0.00 0.00 0.00 0.00 0.00
0.01 0.02 0.02 0.02 0.02 0.02 0.02 0.01 0.00 0.00 0.00 0.00 0.00 0.00 0.00 0.00 0.00 0.00 0.00 0.00 0.00 0.00 0.00 0.00 0.00 0.00 0.00 0.00 0.00 0.00 0.00 0.00 0.00 0.00 0.00 0.00 0.00 0.00 0.00 0.00 0.00 0.00 0.00
0.01 0.01 0.00 0.00 0.00 0.00 0.00 0.00 0.00 0.00 0.00 0.00 0.00 0.00 0.00 0.00 0.00 0.00 0.00 0.00 0.00 0.00 0.00 0.00 0.00 0.00 0.00 0.00 0.00 0.00 0.01 0.01 0.01 0.01 0.00 0.00 0.00 0.00 0.00 0.00 0.00 0.00 0.00
0.00 0.00 0.00 0.00 0.00 0.00 0.00 0.00 0.00 0.00 0.00 0.00 0.00 0.00 0.00 0.00 0.00 0.00 0.00 0.00 0.00 0.00 0.00 0.00 0.00 0.00 0.00 0.00 0.00 0.01 0.01 0.01 0.01 0.00 0.00 0.00 0.00 0.00 0.00 0.00 0.00 0.00 0.00
MSLP
1006.10 1005.89 1005.67 1005.47 1005.29 1005.19 1005.19 1005.32 1005.62 1006.07 1006.65 1007.34 1008.07 1008.81 1009.51 1010.16 1010.73 1011.26 1011.76 1012.27 1012.81 1013.40 1014.05 1014.76 1015.48 1016.20 1016.87 1017.47 1017.97 1018.36 1018.65 1018.84 1018.96 1019.02 1019.04 1019.05 1019.04 1019.03 1019.03 1019.04 1019.06 1019.10 1019.17
1005.63 1005.47 1005.26 1005.03 1004.79 1004.61 1004.54 1004.62 1004.91 1005.40 1006.07 1006.86 1007.72 1008.58 1009.39 1010.12 1010.76 1011.32 1011.84 1012.35 1012.88 1013.48 1014.14 1014.85 1015.59 1016.32 1017.00 1017.59 1018.09 1018.47 1018.75 1018.94 1019.07 1019.15 1019.21 1019.25 1019.27 1019.28 1019.27 1019.26 1019.23 1019.21 1019.20
1005.06 1004.97 1004.79 1004.54 1004.26 1004.02 1003.88 1003.93 1004.21 1004.73 1005.47 1006.37 1007.36 1008.36 1009.30 1010.14 1010.85 1011.45 1011.99 1012.50 1013.03 1013.61 1014.25 1014.95 1015.68 1016.40 1017.06 1017.65 1018.13 1018.51 1018.79 1018.99 1019.15 1019.27 1019.38 1019.46 1019.53 1019.57 1019.58 1019.55 1019.49 1019.41 1019.32
1004.43 1004.42 1004.29 1004.05 1003.74 1003.45 1003.26 1003.27 1003.54 1004.09 1004.90 1005.90 1007.01 1008.14 1009.20 1010.14 1010.94 1011.60 1012.16 1012.67 1013.18 1013.74 1014.36 1015.03 1015.73 1016.42 1017.06 1017.63 1018.11 1018.49 1018.78 1019.02 1019.21 1019.39 1019.55 1019.70 1019.83 1019.92 1019.95 1019.92 1019.83 1019.69 1019.52
1003.81 1003.89 1003.82 1003.60 1003.28 1002.95 1002.73 1002.70 1002.96 1003.52 1004.38 1005.46 1006.67 1007.90 1009.08 1010.12 1010.99 1011.70 1012.29 1012.81 1013.31 1013.85 1014.43 1015.07 1015.73 1016.40 1017.02 1017.58 1018.05 1018.44 1018.76 1019.03 1019.27 1019.51 1019.74 1019.95 1020.14 1020.27 1020.33 1020.30 1020.19 1020.00 1019.76
1003.28 1003.44 1003.43 1003.25 1002.94 1002.59 1002.34 1002.28 1002.52 1003.09 1003.96 1005.08 1006.36 1007.67 1008.93 1010.05 1010.99 1011.75 1012.37 1012.90 1013.40 1013.91 1014.47 1015.08 1015.72 1016.36 1016.97 1017.53 1018.00 1018.41 1018.75 1019.05 1019.34 1019.63 1019.91 1020.18 1020.41 1020.59 1020.67 1020.65 1020.53 1020.30 1020.01
1002.90 1003.13 1003.18 1003.04 1002.75 1002.41 1002.14 1002.06 1002.28 1002.82 1003.69 1004.82 1006.12 1007.47 1008.77 1009.93 1010.92 1011.72 1012.38 1012.93 1013.44 1013.95 1014.50 1015.10 1015.72 1016.35 1016.95 1017.50 1017.99 1018.40 1018.77 1019.10 1019.41 1019.73 1020.05 1020.35 1020.62 1020.82 1020.92 1020.92 1020.79 1020.55 1020.22
1002.69 1002.97 1003.08 1002.98 1002.72 1002.40 1002.14 1002.05 1002.25 1002.77 1003.60 1004.70 1005.98 1007.32 1008.62 1009.80 1010.81 1011.65 1012.33 1012.92 1013.45 1013.98 1014.54 1015.14 1015.76 1016.39 1016.99 1017.54 1018.03 1018.45 1018.82 1019.15 1019.48 1019.80 1020.12 1020.43 1020.71 1020.92 1021.04 1021.04 1020.93 1020.69 1020.36
1002.62 1002.93 1003.08 1003.03 1002.82 1002.55 1002.32 1002.24 1002.43 1002.91 1003.70 1004.75 1005.97 1007.26 1008.53 1009.69 1010.70 1011.56 1012.27 1012.89 1013.46 1014.02 1014.61 1015.23 1015.87 1016.50 1017.10 1017.65 1018.13 1018.54 1018.89 1019.21 1019.51 1019.81 1020.11 1020.40 1020.67 1020.87 1021.00 1021.02 1020.92 1020.71 1020.40
1002.62 1002.94 1003.12 1003.13 1003.00 1002.79 1002.62 1002.58 1002.78 1003.25 1003.99 1004.97 1006.11 1007.32 1008.52 1009.64 1010.63 1011.48 1012.22 1012.88 1013.50 1014.11 1014.74 1015.39 1016.05 1016.69 1017.29 1017.82 1018.28 1018.67 1018.99 1019.26 1019.52 1019.77 1020.02 1020.27 1020.50 1020.69 1020.81 1020.84 1020.77 1020.60 1020.33
1002.61 1002.94 1003.15 1003.22 1003.17 1003.07 1003.00 1003.04 1003.27 1003.74 1004.45 1005.36 1006.41 1007.52 1008.64 1009.69 1010.64 1011.48 1012.24 1012.94 1013.60 1014.27 1014.94 1015.63 1016.30 1016.95 1017.54 1018.05 1018.47 1018.81 1019.08 1019.30 1019.49 1019.67 1019.86 1020.05 1020.23 1020.39 1020.50 1020.55 1020.51 1020.37 1020.15
1002.55 1002.87 1003.11 1003.26 1003.32 1003.35 1003.40 1003.56 1003.87 1004.37 1005.06 1005.90 1006.87 1007.88 1008.90 1009.87 1010.76 1011.59 1012.35 1013.08 1013.79 1014.50 1015.21 1015.93 1016.62 1017.26 1017.83 1018.31 1018.68 1018.97 1019.17 1019.32 1019.43 1019.54 1019.66 1019.79 1019.92 1020.04 1020.14 1020.18 1020.16 1020.06 1019.89
1002.43 1002.75 1003.03 1003.27 1003.45 1003.63 1003.83 1004.12 1004.54 1005.09 1005.79 1006.59 1007.48 1008.40 1009.32 1010.20 1011.04 1011.83 1012.59 1013.33 1014.07 1014.81 1015.56 1016.28 1016.97 1017.60 1018.13 1018.57 1018.89 1019.11 1019.25 1019.33 1019.38 1019.42 1019.47 1019.53 1019.61 1019.69 1019.75 1019.79 1019.77 1019.69 1019.54
1002.34 1002.66 1002.99 1003.30 1003.62 1003.95 1004.31 1004.75 1005.28 1005.91 1006.62 1007.41 1008.23 1009.06 1009.89 1010.69 1011.46 1012.21 1012.95 1013.69 1014.44 1015.20 1015.95 1016.68 1017.35 1017.94 1018.43 1018.81 1019.08 1019.24 1019.32 1019.34 1019.33 1019.31 1019.30 1019.31 1019.33 1019.36 1019.39 1019.40 1019.36 1019.28 1019.13
1002.40 1002.72 1003.08 1003.48 1003.91 1004.37 1004.89 1005.47 1006.11 1006.81 1007.55 1008.32 1009.09 1009.85 1010.59 1011.31 1012.02 1012.72 1013.43 1014.16 1014.90 1015.65 1016.39 1017.09 1017.72 1018.27 1018.71 1019.03 1019.24 1019.35 1019.38 1019.35 1019.29 1019.23 1019.17 1019.13 1019.10 1019.08 1019.06 1019.02 1018.95 1018.83 1018.66
1002.73 1003.05 1003.44 1003.89 1004.40 1004.98 1005.61 1006.29 1007.02 1007.78 1008.54 1009.29 1010.02 1010.72 1011.39 1012.04 1012.68 1013.34 1014.01 1014.71 1015.42 1016.14 1016.84 1017.49 1018.07 1018.56 1018.94 1019.20 1019.36 1019.42 1019.41 1019.35 1019.27 1019.17 1019.08 1018.99 1018.91 1018.84 1018.75 1018.65 1018.51 1018.34 1018.12
1003.43 1003.74 1004.14 1004.61 1005.17 1005.80 1006.50 1007.25 1008.02 1008.80 1009.56 1010.29 1010.98 1011.62 1012.23 1012.82 1013.41 1014.02 1014.65 1015.30 1015.97 1016.64 1017.29 1017.88 1018.39 1018.81 1019.12 1019.32 1019.43 1019.46 1019.42 1019.34 1019.23 1019.12 1019.00 1018.87 1018.74 1018.60 1018.44 1018.27 1018.06 1017.81 1017.53
1004.52 1004.82 1005.20 1005.66 1006.21 1006.84 1007.55 1008.30 1009.07 1009.84 1010.58 1011.27 1011.91 1012.51 1013.07 1013.61 1014.16 1014.72 1015.31 1015.91 1016.53 1017.14 1017.71 1018.23 1018.66 1019.00 1019.24 1019.38 1019.44 1019.44 1019.38 1019.28 1019.17 1019.03 1018.89 1018.73 1018.55 1018.35 1018.11 1017.86 1017.57 1017.25 1016.90
1005.91 1006.18 1006.52 1006.94 1007.45 1008.04 1008.70 1009.41 1010.14 1010.86 1011.55 1012.19 1012.79 1013.34 1013.86 1014.37 1014.88 1015.41 1015.95 1016.51 1017.07 1017.61 1018.10 1018.53 1018.88 1019.13 1019.30 1019.38 1019.40 1019.36 1019.28 1019.18 1019.05 1018.90 1018.73 1018.54 1018.31 1018.05 1017.75 1017.41 1017.05 1016.66 1016.25
1007.44 1007.68 1007.97 1008.33 1008.77 1009.28 1009.87 1010.50 1011.16 1011.81 1012.44 1013.03 1013.58 1014.10 1014.59 1015.07 1015.56 1016.05 1016.56 1017.07 1017.57 1018.04 1018.45 1018.79 1019.05 1019.22 1019.31 1019.34 1019.31 1019.24 1019.14 1019.02 1018.88 1018.72 1018.53 1018.30 1018.03 1017.71 1017.35 1016.95 1016.53 1016.08 1015.63
1008.92 1009.14 1009.38 1009.67 1010.04 1010.47 1010.97 1011.52 1012.09 1012.67 1013.24 1013.78 1014.29 1014.78 1015.25 1015.72 1016.19 1016.66 1017.14 1017.60 1018.04 1018.43 1018.76 1019.01 1019.18 1019.27 1019.30 1019.26 1019.19 1019.09 1018.96 1018.83 1018.67 1018.49 1018.28 1018.02 1017.71 1017.36 1016.95 1016.51 1016.04 1015.56 1015.08
1010.18 1010.38 1010.60 1010.85 1011.15 1011.52 1011.95 1012.43 1012.93 1013.45 1013.96 1014.46 1014.94 1015.41 1015.87 1016.33 1016.79 1017.24 1017.68 1018.10 1018.47 1018.79 1019.04 1019.21 1019.30 1019.32 1019.27 1019.18 1019.06 1018.93 1018.78 1018.62 1018.45 1018.25 1018.02 1017.74 1017.40 1017.02 1016.59 1016.12 1015.63 1015.14 1014.64
1011.13 1011.33 1011.54 1011.78 1012.07 1012.41 1012.80 1013.23 1013.69 1014.16 1014.64 1015.11 1015.58 1016.03 1016.48 1016.93 1017.37 1017.80 1018.21 1018.58 1018.89 1019.14 1019.31 1019.40 1019.41 1019.36 1019.26 1019.12 1018.96 1018.79 1018.62 1018.44 1018.25 1018.03 1017.78 1017.49 1017.14 1016.74 1016.30 1015.82 1015.33 1014.83 1014.34
1011.76 1011.99 1012.23 1012.50 1012.80 1013.15 1013.54 1013.95 1014.40 1014.85 1015.31 1015.77 1016.23 1016.67 1017.11 1017.55 1017.97 1018.36 1018.73 1019.04 1019.29 1019.47 1019.57 1019.59 1019.54 1019.42 1019.27 1019.09 1018.90 1018.70 1018.51 1018.31 1018.10 1017.87 1017.60 1017.30 1016.95 1016.55 1016.11 1015.64 1015.15 1014.65 1014.16
1012.16 1012.45 1012.75 1013.08 1013.43 1013.81 1014.23 1014.67 1015.11 1015.57 1016.03 1016.47 1016.92 1017.35 1017.77 1018.18 1018.57 1018.92 1019.24 1019.49 1019.68 1019.79 1019.82 1019.78 1019.67 1019.51 1019.31 1019.10 1018.88 1018.66 1018.45 1018.23 1018.01 1017.77 1017.50 1017.19 1016.83 1016.44 1016.01 1015.54 1015.07 1014.58 1014.08
1012.49 1012.85 1013.23 1013.63 1014.05 1014.49 1014.95 1015.41 1015.88 1016.34 1016.79 1017.23 1017.65 1018.06 1018.45 1018.82 1019.16 1019.46 1019.71 1019.91 1020.03 1020.08 1020.05 1019.96 1019.80 1019.61 1019.38 1019.14 1018.90 1018.67 1018.44 1018.21 1017.97 1017.72 1017.44 1017.13 1016.78 1016.39 1015.96 1015.51 1015.04 1014.54 1014.04
Thickness
5688 5694 5698 5701 5703 5705 5706 5706 5703 5703 5699 5693 5688 5683 5678 5676 5674 5673 5671 5666 5660 5655 5649 5643 5637 5632 5627 5622 5619 5614 5608 5604 5604 5604 5603 5603 5602 5600 5597 5593 5589 5586 5582
5682 5687 5691 5694 5696 5698 5700 5700 5699 5698 5696 5692 5687 5681 5673 5667 5665 5664 5661 5658 5653 5647 5641 5636 5630 5626 5620 5615 5610 5607 5600 5595 5594 5592 5591 5589 5588 5587 5588 5583 5579 5575 5571
5676 5679 5682 5686 5688 5690 5692 5693 5693 5692 5690 5687 5680 5670 5661 5655 5651 5650 5648 5646 5642 5638 5633 5628 5623 5618 5613 5607 5602 5598 5594 5586 5583 5581 5578 5575 5572 5570 5573 5572 5569 5564 5559
5672 5673 5675 5677 5680 5684 5685 5686 5686 5685 5684 5681 5674 5666 5659 5652 5647 5643 5638 5635 5632 5628 5625 5620 5615 5610 5605 5599 5594 5589 5585 5580 5574 5570 5567 5563 5559 5554 5552 5555 5556 5553 5548
5664 5665 5666 5669 5672 5674 5676 5678 5678 5677 5676 5674 5669 5661 5654 5647 5639 5633 5628 5625 5621 5619 5616 5612 5607 5602 5596 5590 5585 5580 5575 5571 5566 5561 5557 5553 5548 5543 5536 5534 5536 5536 5533
5652 5653 5655 5658 5659 5662 5663 5666 5668 5667 5666 5663 5660 5654 5647 5639 5631 5625 5620 5616 5612 5610 5607 5603 5599 5594 5588 5581 5575 5570 5565 5561 5556 5551 5546 5541 5536 5531 5525 5521 5520 5519 5519
5635 5635 5638 5639 5643 5646 5649 5652 5655 5655 5655 5653 5649 5645 5639 5633 5627 5621 5616 5611 5606 5602 5598 5595 5590 5585 5578 5572 5565 5559 5554 5550 5545 5540 5535 5530 5524 5519 5513 5506 5502 5502 5504
5617 5618 5620 5621 5625 5630 5634 5638 5640 5642 5642 5641 5638 5634 5628 5623 5619 5614 5610 5605 5601 5596 5591 5586 5581 5575 5569 5562 5555 5549 5544 5540 5535 5530 5524 5518 5512 5507 5500 5493 5487 5483 5485
5601 5601 5602 5604 5607 5612 5618 5623 5627 5628 5629 5628 5625 5621 5617 5614 5610 5605 5600 5597 5592 5587 5582 5577 5571 5565 5558 5552 5545 5540 5534 5530 5524 5518 5513 5507 5501 5495 5489 5482 5474 5465 5464
5585 5585 5585 5586 5590 5595 5602 5609 5613 5615 5616 5616 5614 5610 5606 5603 5600 5596 5592 5588 5583 5579 5574 5568 5561 5555 5548 5542 5536 5530 5525 5519 5514 5508 5501 5495 5490 5483 5477 5469 5462 5454 5448
5569 5567 5567 5569 5572 5577 5584 5592 5597 5601 5602 5602 5600 5596 5594 5591 5589 5586 5582 5578 5574 5570 5565 5559 5552 5545 5538 5532 5526 5520 5514 5508 5503 5497 5491 5485 5479 5471 5464 5456 5449 5441 5434
5556 5552 5551 5553 5555 5560 5567 5575 5581 5586 5588 5587 5585 5583 5580 5579 5578 5575 5571 5568 5564 5560 5555 5549 5542 5534 5528 5522 5516 5510 5504 5498 5492 5486 5480 5473 5467 5459 5451 5443 5435 5427 5420
5542 5538 5537 5537 5539 5545 5550 5558 5565 5570 5572 5572 5570 5568 5568 5568 5567 5564 5561 5557 5554 5549 5544 5538 5530 5523 5517 5511 5505 5499 5493 5487 5481 5475 5468 5461 5454 5445 5437 5429 5421 5413 5406
5528 5524 5523 5524 5527 5532 5537 5544 5550 5555 5556 5556 5556 5556 5557 5558 5557 5554 5550 5547 5543 5538 5532 5525 5518 5511 5505 5499 5493 5487 5481 5475 5469 5464 5457 5450 5442 5433 5425 5417 5407 5399 5391
5519 5514 5512 5512 5515 5519 5523 5529 5534 5539 5541 5543 5545 5547 5547 5548 5547 5543 5539 5535 5531 5525 5519 5512 5505 5499 5494 5487 5480 5474 5468 5462 5456 5451 5444 5437 5430 5422 5414 5405 5396 5386 5376
5512 5507 5504 5503 5505 5508 5512 5516 5521 5526 5530 5533 5535 5538 5539 5538 5536 5532 5528 5523 5517 5512 5506 5499 5493 5487 5482 5475 5468 5462 5455 5449 5443 5437 5431 5424 5416 5409 5401 5392 5381 5370 5359
5507 5502 5498 5497 5498 5500 5505 5509 5513 5518 5521 5524 5527 5529 5529 5528 5525 5521 5516 5511 5505 5499 5493 5487 5482 5476 5469 5463 5457 5450 5443 5436 5430 5424 5417 5411 5403 5394 5385 5376 5366 5353 5339
5504 5498 5494 5493 5494 5496 5500 5504 5507 5511 5514 5516 5518 5520 5519 5517 5514 5509 5504 5499 5493 5488 5482 5476 5471 5465 5459 5452 5445 5438 5431 5424 5417 5411 5404 5396 5388 5379 5371 5363 5351 5337 5324
5501 5496 5492 5491 5492 5495 5498 5501 5502 5504 5506 5508 5509 5510 5509 5507 5503 5498 5492 5488 5482 5476 5470 5465 5460 5454 5447 5441 5433 5427 5418 5411 5404 5397 5390 5381 5373 5366 5358 5347 5335 5323 5311
5496 5492 5491 5491 5491 5492 5494 5496 5497 5498 5499 5500 5501 5500 5499 5497 5492 5487 5481 5476 5471 5465 5460 5454 5449 5443 5436 5430 5423 5416 5406 5399 5392 5384 5375 5366 5358 5349 5339 5327 5316 5308 5299
5492 5491 5490 5489 5488 5489 5491 5491 5491 5491 5492 5494 5494 5492 5489 5485 5480 5475 5470 5465 5460 5455 5450 5444 5438 5432 5425 5418 5411 5404 5395 5386 5379 5370 5361 5351 5342 5332 5321 5310 5299 5291 5287
5492 5490 5489 5487 5486 5486 5486 5486 5485 5486 5487 5486 5484 5480 5477 5474 5469 5464 5458 5454 5449 5443 5438 5432 5425 5419 5412 5406 5399 5392 5383 5375 5365 5355 5345 5335 5325 5315 5304 5295 5287 5282 5278
5495 5492 5490 5488 5485 5484 5484 5484 5482 5482 5481 5478 5475 5471 5467 5462 5457 5452 5447 5443 5438 5432 5425 5419 5411 5405 5399 5392 5386 5377 5368 5358 5348 5338 5328 5318 5308 5298 5289 5282 5279 5274 5268
5494 5492 5490 5488 5484 5482 5481 5480 5478 5476 5474 5470 5465 5461 5456 5451 5447 5442 5436 5431 5425 5418 5411 5404 5398 5391 5384 5377 5370 5361 5351 5342 5332 5321 5311 5302 5293 5285 5280 5275 5269 5265 5261
5492 5490 5487 5484 5480 5477 5475 5473 5471 5469 5465 5460 5455 5450 5446 5441 5436 5431 5425 5420 5413 5407 5400 5393 5385 5378 5370 5364 5357 5348 5339 5328 5319 5310 5299 5288 5281 5275 5271 5268 5264 5261 5258
5487 5483 5480 5477 5474 5471 5468 5465 5463 5461 5457 5450 5444 5439 5435 5430 5425 5420 5414 5410 5404 5399 5392 5385 5376 5368 5360 5352 5343 5333 5324 5314 5305 5296 5284 5277 5272 5268 5266 5263 5261 5257 5253